Location: Bottenau
(48.5138°N, 8.0462°E)
Time: 05:31:12
(UTC+00:00)

Cosmos 2221 - Pass Details

Date: 18 April 2021
Orbit: 593 x 615 km, 82.5° (Epoch: 09 May)

Event Time Altitude Azimuth Distance (km) Brightness Sun altitude
Exits shadow 22:30:08 35° 311° (NW) 963 3.9 -29.0°
Drops below altitude 10° 22:33:25 10° 355° (N) 1,942 6.0 -29.2°
Sets 22:35:46 0° 4° (N) 2,852 7.0 -29.3°
